Temp
20 20 20 19 19 19 19 19 19 19 19 19 18 18 18 18 18 18 18 18 18 17 17 17 17 17 17 17 17 17 17 17
20 20 20 19 19 20 20 20 19 19 18 18 18 18 18 18 18 18 17 18 18 18 17 17 17 17 17 17 17 17 17 17
20 20 20 20 20 20 19 19 19 18 18 18 18 18 18 18 18 18 17 17 18 17 17 17 17 17 17 17 17 17 17 17
20 20 20 20 20 20 19 19 19 18 18 18 18 18 18 18 18 17 17 17 17 17 17 17 17 17 17 17 17 17 17 17
20 20 20 20 20 20 19 19 19 19 18 18 18 18 18 18 17 17 17 17 17 17 17 16 16 16 16 16 16 16 17 17
21 20 20 20 20 20 20 20 19 19 19 18 18 18 18 18 17 17 17 17 16 16 16 16 16 16 16 15 15 15 15 16
21 20 20 20 20 20 20 20 19 19 19 18 18 18 18 18 17 17 17 17 16 16 16 16 16 15 15 15 15 15 15 15
21 20 20 20 20 21 20 20 19 19 19 18 18 18 18 17 17 17 16 16 15 15 15 15 14 14 14 14 14 14 14 14
20 20 20 20 20 20 19 19 19 19 18 18 18 17 16 16 15 15 15 14 14 14 14 14 14 13 13 13 13 13 13 13
19 19 19 19 19 19 18 18 18 18 17 17 16 15 15 15 14 14 13 13 13 13 13 13 12 12 12 12 12 12 12 12
18 18 17 17 17 17 17 18 17 17 16 15 15 14 14 14 13 12 12 12 12 12 11 11 11 11 11 11 11 11 11 10
17 16 16 16 17 17 17 16 15 15 15 14 14 14 13 13 13 12 11 11 11 11 10 10 10 8 9 9 9 10 9 9
17 17 17 17 17 16 16 14 14 14 14 13 13 13 13 12 11 11 10 9 8 8 8 8 8 8 8 7 8 9 8 8
18 18 18 17 17 16 15 14 14 14 13 13 12 12 11 10 10 10 9 8 8 7 7 7 7 6 5 6 4 7 7 6
18 18 18 17 17 17 15 14 13 12 11 11 10 10 10 10 9 8 8 7 7 6 6 5 5 5 4 4 3 3 4 6
17 17 17 17 17 17 17 16 13 11 10 10 10 10 10 9 8 8 7 6 6 5 5 5 4 3 4 4 3 3 3 3
16 16 16 15 15 15 15 14 13 11 11 10 10 9 9 8 8 7 6 5 5 5 4 4 3 3 2 2 2 2 2 2
15 15 15 15 15 14 13 13 11 11 10 11 11 10 9 8 7 7 6 5 5 4 4 3 3 3 2 2 1 1 2 2
15 15 15 14 13 13 12 11 11 11 11 11 10 9 9 8 7 7 6 5 4 4 4 3 3 3 3 2 2 1 1 0
14 14 13 13 12 12 11 11 11 11 10 10 9 9 8 7 7 6 5 5 4 4 3 3 3 3 2 2 2 1 1 0
Height
833 834 834 837 838 840 839 840 841 842 843 844 844 845 848 848 848 850 847 847 846 847 847 845 844 843 842 841 840 839 838 837
834 834 835 837 838 839 839 841 842 843 844 846 847 850 849 848 849 849 849 848 847 847 847 846 846 844 843 841 840 840 839 837
834 835 834 836 839 840 841 842 842 843 845 848 848 849 848 849 848 850 849 849 848 848 847 846 846 845 843 842 840 840 838 837
833 833 835 838 840 841 841 842 843 845 846 847 848 849 849 850 848 849 850 849 848 848 846 846 846 845 843 842 841 840 838 836
832 835 837 839 839 839 840 842 842 845 846 846 848 848 848 849 849 849 849 849 848 848 845 845 845 843 842 841 840 839 838 836
831 834 836 837 836 838 839 841 843 843 844 846 848 849 849 849 850 849 849 849 848 847 845 843 843 841 840 839 838 837 835 834
830 834 836 836 836 838 839 841 841 844 846 847 848 848 849 850 850 849 847 847 846 844 843 841 840 839 838 837 836 834 832 831
827 833 833 835 837 837 839 842 841 842 846 848 849 849 849 848 849 848 847 845 844 842 841 840 838 837 835 834 833 831 829 828
828 832 833 834 836 838 841 842 843 843 846 848 849 848 849 848 848 847 846 845 843 841 840 837 835 834 833 831 830 828 825 823
833 836 839 839 837 839 841 843 844 843 846 847 847 848 848 848 847 847 846 844 841 839 837 833 832 830 828 827 826 824 822 820
833 837 838 841 841 840 841 842 843 844 845 847 849 849 849 847 847 847 845 842 840 837 836 833 831 828 825 823 822 820 819 817
834 836 837 842 840 841 843 844 845 847 848 849 850 849 849 848 848 846 845 842 839 837 834 832 829 826 823 821 820 818 816 815
835 836 839 841 843 845 845 847 850 850 851 851 851 851 850 850 849 847 844 842 840 838 834 831 829 826 821 818 816 814 814 812
837 838 841 844 847 848 849 851 852 853 853 852 851 851 850 849 847 844 842 841 839 836 834 832 831 828 826 820 815 811 810 811
840 842 844 846 847 849 851 852 853 853 853 852 851 850 848 847 845 844 842 841 839 837 835 833 831 829 828 828 822 817 811 807
842 843 845 846 847 848 849 849 850 851 852 851 849 848 847 845 843 842 840 839 837 835 834 833 832 830 828 828 827 823 815 806
843 844 846 847 848 848 847 846 847 849 850 849 849 847 845 843 841 839 837 835 834 833 832 831 830 828 827 825 823 820 817 813
844 845 846 846 845 845 845 846 847 848 849 847 846 844 843 840 838 836 834 833 833 831 830 829 827 825 824 822 820 818 815 811
846 846 845 845 845 845 846 846 847 847 846 845 843 841 839 837 835 833 832 831 830 829 828 827 825 822 820 819 816 814 813 810
846 846 846 846 846 846 847 847 845 844 842 841 839 837 835 833 831 830 828 827 827 827 826 825 822 820 817 816 813 811 810 808
Wind_Speed
19 17 16 15 15 15 15 14 13 13 13 12 12 10 10 10 11 10 10 10 12 13 13 14 15 15 16 17 17 15 14 12
20 17 16 16 16 15 15 15 14 13 11 9 8 7 7 6 7 6 6 7 8 8 9 10 11 13 15 15 15 16 15 14
20 18 18 17 17 17 16 14 13 11 9 6 5 4 3 2 3 3 4 4 5 6 7 8 10 12 15 15 15 16 16 15
22 21 19 19 19 17 15 14 12 9 7 5 5 4 3 2 0 1 4 6 7 9 10 10 11 15 17 17 17 18 18 17
24 20 19 18 18 17 15 13 12 10 7 5 5 5 5 3 2 3 5 8 10 10 10 11 14 17 18 18 18 18 18 19
24 23 21 19 16 15 15 15 14 12 9 7 6 3 2 1 2 5 7 9 10 10 11 14 16 18 19 19 19 19 20 21
26 24 20 17 14 15 15 14 15 12 10 8 6 6 5 3 2 5 7 9 11 13 14 16 18 20 19 19 20 20 19 20
29 25 19 18 15 12 13 14 12 13 12 9 7 7 5 3 3 4 6 10 11 13 15 16 17 19 22 23 23 23 23 23
29 26 19 16 13 9 9 11 10 9 11 8 6 4 2 1 3 5 9 11 13 15 18 20 21 21 22 24 24 25 25 26
27 22 11 10 11 7 6 7 5 5 8 5 2 4 6 4 5 9 11 13 16 19 22 24 26 27 29 30 31 28 25 23
24 15 5 3 4 10 12 10 10 11 12 11 9 9 10 10 13 14 15 18 20 22 23 24 26 29 31 31 29 27 25 19
20 11 12 10 15 17 17 19 18 15 14 12 10 11 11 13 15 17 20 22 24 25 26 27 26 22 25 18 25 24 14 17
10 11 12 15 18 16 16 20 16 15 13 10 10 10 12 14 16 18 20 22 21 21 22 21 22 23 15 23 22 5 24 13
19 18 16 14 13 14 11 11 11 9 7 6 7 8 11 14 18 19 20 23 23 23 21 19 15 18 14 15 4 17 5 31
20 18 14 11 9 8 10 9 5 4 4 6 8 10 14 17 15 13 17 22 19 16 15 16 15 15 15 6 4 3 17 8
18 16 13 10 7 5 5 5 7 6 5 5 6 11 15 14 12 13 17 15 9 9 11 12 12 14 18 12 12 16 5 8
14 14 12 10 8 4 5 7 6 5 2 4 10 12 13 12 11 14 16 9 7 9 10 11 12 12 13 16 18 16 18 7
13 11 9 7 6 6 7 8 8 4 1 8 14 15 14 12 10 12 11 8 9 10 11 11 12 12 13 14 13 8 13 12
9 8 9 7 6 6 5 4 3 3 8 12 14 15 16 14 12 11 8 8 8 10 11 12 12 12 12 14 14 15 13 12
7 9 7 7 7 7 5 2 6 9 12 14 15 16 17 14 13 9 7 8 9 11 12 14 13 13 13 13 14 12 13 14
Wind_Direction
141 140 142 146 142 141 135 135 137 132 126 117 116 106 104 86 78 61 60 53 49 42 36 30 27 20 13 14 11 2 2 8
143 142 144 145 144 143 143 139 137 133 139 130 119 108 106 95 80 68 53 45 42 41 27 15 9 6 2 1 1 3 354 338
152 147 147 149 151 150 146 139 138 140 148 150 143 146 121 108 102 62 31 21 10 355 351 348 351 353 352 349 345 344 345 346
167 163 157 157 158 156 153 152 149 153 156 165 168 191 201 227 223 329 324 333 335 328 334 334 341 348 346 339 339 335 333 331
179 174 172 169 166 163 165 171 166 166 172 191 212 235 221 246 267 323 340 347 354 352 357 353 347 347 344 336 327 323 318 319
183 183 184 183 177 183 181 181 189 188 190 198 217 208 263 266 345 5 357 354 357 3 355 346 340 337 338 334 330 327 319 307
189 191 192 187 192 195 199 199 202 206 206 202 214 233 235 241 309 327 322 329 330 333 332 331 333 336 336 334 333 334 331 328
193 192 184 178 182 177 196 210 213 203 207 211 217 231 237 237 262 305 330 338 339 339 344 343 339 335 330 329 327 327 325 322
190 180 173 171 170 170 179 171 200 214 204 224 232 253 254 323 35 8 2 356 349 342 337 337 337 338 336 331 331 330 325 321
182 176 159 158 152 143 164 171 140 175 202 212 168 108 92 68 30 21 10 356 349 346 346 342 338 337 335 332 330 331 331 330
178 165 148 230 88 96 99 113 115 102 112 107 100 86 64 45 36 22 5 356 351 350 340 341 333 330 328 326 326 327 334 336
164 161 118 105 117 99 93 91 94 98 96 88 71 50 32 19 9 1 355 351 346 340 339 336 338 341 338 335 331 325 336 340
104 116 103 98 99 96 91 93 92 92 82 65 44 28 14 4 2 358 356 0 1 360 1 359 354 345 342 338 332 355 324 321
104 98 102 106 107 100 92 99 91 85 78 53 31 15 9 7 2 0 4 2 356 356 357 357 349 351 352 328 330 315 299 327
117 115 115 109 95 95 105 122 122 109 84 60 36 9 359 354 360 10 4 358 352 348 355 357 347 348 0 3 334 307 326 323
137 136 136 141 154 181 201 209 181 158 115 57 12 351 349 356 354 354 352 353 355 7 354 356 359 349 340 323 315 310 313 312
146 146 148 152 162 174 178 158 146 142 95 346 334 334 340 342 340 343 343 349 353 349 351 336 339 328 322 318 314 309 294 260
118 129 128 148 159 158 166 161 157 162 267 319 321 316 313 311 317 329 337 336 329 326 330 322 325 327 321 318 312 302 299 290
116 142 155 167 164 155 153 153 160 291 299 303 303 299 296 291 292 307 308 309 311 320 314 310 308 311 313 317 318 314 319 330
146 165 161 175 177 166 164 246 293 297 295 291 284 281 277 261 264 273 276 283 298 298 295 296 295 299 304 310 314 317 322 319